User: anonymous   Login
Location: Del Oro Observatory
(38.3044°N, 104.8119°W)
Time: 07:28:15
(UTC-07:00)
Language:

Cosmos 1602 Rocket - Orbit

View from above orbital plane
View from above orbital plane
View from above satellite
View from above satellite

Ground track
Ground track

The orbit data is extracted from the following two-line orbital elements,

1 15332U 84105B   18017.05723081  .00000066  00000-0  50696-5 0  9998
2 15332  82.5353 348.1578 0021922  28.9264  17.3728 14.83339654798294
Epoch (UTC): 17 January 2018 01:22:24
Eccentricity: 0.0021922
inclination: 82.5353°
perigee height: 603 km
apogee height: 634 km
right ascension of ascending node: 348.1578°
argument of perigee: 28.9264°
revolutions per day: 14.83339654
mean anomaly at epoch: 17.3728°
orbit number at epoch: 79829

The dashed part of the orbit path shows where the satellite is in the earth's shadow,  

DLR